Wanzoul - Challenge Hesbignon

La Corrida de Wanzoul (5.60 km)

Classement complet
Le classement original se trouve sur : http://www.challengehesbignon.be/
CHALLENGE HESBIGNON
LA CORRIDA DE WANZOUL
DISTANCE 5.60 km
samedi 24 juin 2017
 
Place dos Nom Cat. Pl/Cat. temps temps/km Vitesse
1 756 WOLFS Michel H 1 00:19:19 03:27 17.39
2 715 FRANCOIS Sébastien H 2 00:19:42 03:31 17.06
3 5123 RIGA Adrien EH 1 00:19:47 03:32 16.98
4 731 FRISON david H 3 00:19:59 03:34 16.81
5 5185 COLETTE Tanguy EH 2 00:20:53 03:44 16.09
6 5184 MANETTE Olivier H 4 00:21:11 03:47 15.86
7 5216 FIEUW Morgan H 5 00:21:38 03:52 15.53
8 5191 GOBERT Romain EH 3 00:21:56 03:55 15.32
9 5136 GRAINDORGE Victor CH 1 00:22:12 03:58 15.14
10 806 LANTIN Dylan H 6 00:22:34 04:02 14.89
11 779 COX Benoit H 7 00:22:40 04:03 14.82
12 5116 GILLET Thibault CH 2 00:22:52 04:05 14.69
13 810 MAES Tijs CH 3 00:23:11 04:08 14.49
14 811 MAES Bart H 8 00:23:13 04:09 14.47
15 705 RENARD chil H 9 00:23:13 04:09 14.47
16 5181 MOMMEN Issam CH 4 00:23:17 04:09 14.43
17 809 DRIESEN Sim CH 5 00:23:22 04:10 14.38
18 723 SPELMANS ingrid F 1 00:23:40 04:14 14.20
19 5173 LAROCK Yorick H 10 00:23:40 04:14 14.20
20 5195 D'OUTREMONT Francois EH 4 00:24:03 04:18 13.97
21 788 FRISON aaron CH 6 00:24:33 04:23 13.69
22 5127 GRAINDORGE MAXENCE CH 7 00:24:37 04:24 13.65
23 5125 BAWIN Maxence CH 8 00:24:41 04:24 13.61
24 702 BELLAIRE jonathan H 11 00:24:44 04:25 13.58
25 5175 LAMBOTTE Manon EF 1 00:24:49 04:26 13.54
26 5198 NELIS Raphael H 12 00:25:00 04:28 13.44
27 5148 JADOT Antoine CH 9 00:25:03 04:28 13.41
28 5155 FRONTAIN Nicolas EH 5 00:25:07 04:29 13.38
29 799 LORGE Fabienne F 2 00:25:11 04:30 13.34
30 5134 SAUVAGE Marie-Hélcne F 3 00:25:18 04:31 13.28
31 5147 JADOT Benjamin CH 10 00:25:24 04:32 13.23
32 5128 FRANKENNE Linda F 4 00:25:25 04:32 13.22
33 714 DEBRAS michael H 13 00:25:28 04:33 13.19
34 747 SCALAIS benoit CH 11 00:25:33 04:34 13.15
35 818 DELBART emmanuel H 14 00:25:37 04:34 13.12
36 749 SIMON raphael H 15 00:25:45 04:36 13.05
37 701 GUILLAUME melissa F 5 00:25:46 04:36 13.04
38 706 NOSSAINT philippe H 16 00:25:52 04:37 12.99
39 736 LINDEKENS angelique F 6 00:25:57 04:38 12.95
40 763 VANSCHOONBEEK Jelle CH 12 00:25:59 04:38 12.93
41 5176 LAMBOTTE Pascal H 17 00:26:01 04:39 12.91
42 5126 DE ALMEIDA Carlos H 18 00:26:05 04:39 12.88
43 5142 VLEMINCKX Bernard H 19 00:26:16 04:41 12.79
44 703 VANDENSAVEL manon F 7 00:26:16 04:41 12.79
45 5109 BERTRAND Tom CH 13 00:26:19 04:42 12.77
46 750 BARROIT dominique H 20 00:26:19 04:42 12.77
47 748 SCALAIS julie CF 1 00:26:22 04:43 12.74
48 722 DUBOIS mateo CH 14 00:26:26 04:43 12.71
49 728 VAN DE WIELE thibaut CH 15 00:26:26 04:43 12.71
50 796 RASSART Jorick H 21 00:26:36 04:45 12.63
51 760 VANSCHOONBEEK Eline CF 2 00:26:42 04:46 12.58
52 765 VANSCHOONBEEK Steven H 22 00:26:43 04:46 12.58
53 737 NIVARLET frederic H 23 00:26:44 04:46 12.57
54 5192 LINCE Alexandre H 24 00:26:46 04:47 12.55
55 5153 FIEVEZ Lisiane F 8 00:26:47 04:47 12.55
56 738 PARIS vincent H 25 00:26:52 04:48 12.51
57 761 COURTIN jacqueline F 9 00:26:56 04:49 12.48
58 724 LEMMENS bernadette F 10 00:26:58 04:49 12.46
59 791 BOLANGER Jens CH 16 00:27:07 04:51 12.39
60 813 ELIARD Marine CF 3 00:27:18 04:53 12.31
61 5214 VANVINCKENROYE Bernard H 26 00:27:19 04:53 12.30
62 5121 WATHIER Cyril CH 17 00:27:29 04:54 12.23
63 734 VAN DE WIELE gilles H 27 00:27:41 04:57 12.14
64 5158 FRONTAIN Louis EH 6 00:27:54 04:59 12.04
65 5199 VANSTECHELMAN Emilie F 11 00:27:58 05:00 12.01
66 5197 D'OULTREMENT Bruno CH 18 00:28:04 05:01 11.97
67 5164 VANDEN BUSSCHE Pascal H 28 00:28:20 05:04 11.86
68 5152 KLINKENBERG Laurent H 29 00:28:24 05:04 11.83
69 768 HAESEN Isabelle F 12 00:28:27 05:05 11.81
70 5170 RAWAX Cecile F 13 00:28:35 05:06 11.76
71 717 WATTIEZ raphaelle F 14 00:28:43 05:08 11.70
72 5179 MIERS Julie F 15 00:28:47 05:08 11.67
73 5166 LUBRANO Arielle F 16 00:28:48 05:09 11.67
74 5106 BERTRAND Marie F 17 00:28:48 05:09 11.67
75 5108 LESCEUX Audrey F 18 00:28:52 05:09 11.64
76 5105 ROUXHET Charlotte F 19 00:28:53 05:09 11.63
77 757 DOCQUIER manon CF 4 00:28:53 05:09 11.63
78 5139 ROSOUX Erwan CH 19 00:28:54 05:10 11.63
79 5119 CONINGS Michael H 30 00:28:55 05:10 11.62
80 5190 DOREDDEM Samy EH 7 00:29:18 05:14 11.47
81 5189 ISTASSE Benoit EH 8 00:29:19 05:14 11.46
82 5114 HUGO Jadot CH 20 00:29:32 05:16 11.38
83 5101 PIROT Cédric H 31 00:29:35 05:17 11.36
84 726 HEINE veronique F 20 00:29:52 05:20 11.25
85 5215 FONTAINE Lucie F 21 00:29:59 05:21 11.21
86 5161 DEWAELE Christel F 22 00:30:01 05:22 11.19
87 720 FADEUR sarah F 23 00:30:02 05:22 11.19
88 5230 KALEK Fabien H 32 00:30:04 05:22 11.18
89 730 FRISON mattew CH 21 00:30:08 05:23 11.15
90 5188 MORSA Stephane H 33 00:30:12 05:24 11.13
91 5107 BAEKE Aurélie F 24 00:30:17 05:24 11.10
92 5196 MONSEUR Arceibalo CH 22 00:30:21 05:25 11.07
93 5174 CLOUX Paul H 34 00:30:26 05:26 11.04
94 5226 JAMART Vincent H 35 00:30:37 05:28 10.97
95 5203 PAULY Laurine F 25 00:30:38 05:28 10.97
96 5202 BERNARD Francois H 36 00:30:39 05:28 10.96
97 5120 HEYNE Zélie H 37 00:30:40 05:29 10.96
98 5132 DREZE Aurélie F 26 00:30:56 05:31 10.86
99 5122 BASTIDE Corinne F 27 00:30:59 05:32 10.84
100 797 ETIENNE Evelyne F 28 00:31:02 05:33 10.83
101 5222 GRUTMAN Delphine F 29 00:31:02 05:33 10.83
102 5223 VANKERCKHOVEN Nicolas H 38 00:31:03 05:33 10.82
103 776 NIJS Monique F 30 00:31:09 05:34 10.79
104 5183 VANHEES Vicky F 31 00:31:20 05:36 10.72
105 5178 DOCQUIER Lili-Bess CF 5 00:31:29 05:37 10.67
106 5138 ROSOUX Ronnie H 39 00:31:33 05:38 10.65
107 5160 FRONTAIN Frédérick H 40 00:31:35 05:38 10.64
108 802 HUMBLET Christelle F 32 00:31:39 05:39 10.62
109 5180 DOCQUIER Emile CH 23 00:31:41 05:39 10.60
110 5103 FRANCOTTE Anatole CH 24 00:31:51 05:41 10.55
111 5186 FADISTA Fanny CF 6 00:32:10 05:45 10.45
112 5207 FLERON Sacha CF 7 00:32:19 05:46 10.40
113 792 BOLANGER Joran CH 25 00:32:21 05:47 10.39
114 5104 CHAIVIN Basile CH 26 00:32:23 05:47 10.38
115 5133 OCHELEN Jean-Pascal H 41 00:32:26 05:47 10.36
116 5201 DEJASSE Lena CF 8 00:32:31 05:48 10.33
117 5200 DEJASSE Olivier H 42 00:32:31 05:48 10.33
118 5117 STASSE Patrick H 43 00:32:49 05:52 10.24
119 5129 SAVONET Robin EH 9 00:32:50 05:52 10.23
120 5193 LINCE Maeliss CF 9 00:32:51 05:52 10.23
121 5156 ROSIERE Tristan CH 27 00:32:57 05:53 10.20
122 5110 CAMBRESIER Stéphanie F 33 00:33:01 05:54 10.18
123 710 NOSSAINT leo CH 28 00:33:02 05:54 10.17
124 5137 CASTIGLIONI Mady F 34 00:33:04 05:54 10.16
125 739 ZWAENEPOEL manon F 35 00:33:11 05:56 10.13
126 5224 GREGOIRE Stephanie F 36 00:33:24 05:58 10.06
127 5141 ARENAS Mara F 37 00:33:36 06:00 10.00
128 766 UITDEBROEKS Anja F 38 00:33:59 06:04 9.89
129 5154 DUMOULIN Sophie F 39 00:34:03 06:05 9.87
130 794 BOLANGER Keano CH 29 00:34:16 06:07 9.81
131 5167 DRESE Adam CH 30 00:34:17 06:07 9.80
132 5213 LEKEU Bryan H 44 00:34:25 06:09 9.76
133 5210 MOONS Alice F 40 00:34:25 06:09 9.76
134 5118 LARUELLE Anne-Lise F 41 00:34:32 06:10 9.73
135 5218 MASY Theo CH 31 00:34:34 06:10 9.72
136 5221 MASY Noah CH 32 00:34:34 06:10 9.72
137 5220 MASY Yannick H 45 00:34:34 06:10 9.72
138 5124 SCHMIT Sandrine F 42 00:34:38 06:11 9.70
139 5157 STOCQUART Nelle F 43 00:34:39 06:11 9.70
140 5144 MAES Lukas H 46 00:34:42 06:12 9.68
141 5219 HAVELANGE Isabelle F 44 00:34:42 06:12 9.68
142 793 MERTENS Hugo H 47 00:34:43 06:12 9.68
143 5143 CEUNEN Godelie F 45 00:34:50 06:13 9.65
144 5151 DEVOS Jean-Daniel H 48 00:34:52 06:14 9.64
145 725 BERNARD lucette F 46 00:35:19 06:18 9.51
146 5171 MEVRANT-PAILHE Ninom CF 10 00:35:21 06:19 9.50
147 5172 DRIESSEN Joannic F 47 00:35:21 06:19 9.50
148 5165 COCHI Fabrizio H 49 00:35:30 06:20 9.46
149 5163 GROLLET Gaelle F 48 00:35:46 06:23 9.39
150 5135 GAVRILOVA Eléna F 49 00:35:47 06:23 9.39
151 5131 RIEPPA Audrey F 50 00:35:53 06:24 9.36
152 5140 SELDESLACHTS Camille F 51 00:36:03 06:26 9.32
153 777 VANDERSTEEN Inez F 52 00:36:15 06:28 9.27
154 5204 LEGRAND Philippe H 50 00:36:28 06:31 9.21
155 5100 ROQUET Noémie F 53 00:36:40 06:33 9.16
156 1754 HONLET Francoise F 54 00:36:41 06:33 9.16
157 759 PIRSON helene F 55 00:36:43 06:33 9.15
158 5225 FRANSSEN Isabelle F 56 00:36:48 06:34 9.13
159 5113 BARSI Julie F 57 00:37:02 06:37 9.07
160 5112 CHAUVIN Macha CF 11 00:37:03 06:37 9.07
161 5111 FRANCOTTE Jacques H 51 00:37:03 06:37 9.07
162 5227 LANGE Serge H 52 00:37:10 06:38 9.04
163 5177 DELVIGNE Anais F 58 00:37:55 06:46 8.86
164 5187 LUTS Kathy F 59 00:37:55 06:46 8.86
165 5169 DREZE Amele CF 12 00:37:55 06:46 8.86
166 5168 DREZE Quentin H 53 00:37:56 06:46 8.86
167 5182 DEBIEVRE Gaelle EF 2 00:37:56 06:46 8.86
168 5208 HUBERT Laurence F 60 00:37:59 06:47 8.85
169 5115 JEUGMANS Stéphanie F 61 00:38:22 06:51 8.76
170 711 LABRUNE marie-noelle F 62 00:38:45 06:55 8.67
171 5145 TALLIEU Hyacintha F 63 00:39:30 07:03 8.51
172 5146 DEBRAS Didier H 54 00:39:30 07:03 8.51
173 5205 NIEUWLAND Pascale F 64 00:39:31 07:03 8.50
174 712 MATERNE Jean-Marie H 55 00:39:41 07:05 8.47
175 5211 LEKEU Joey H 56 00:40:31 07:14 8.29
176 5150 MASSART Thibault EH 10 00:40:31 07:14 8.29
177 5217 DORVAL Marie-Lucie CF 13 00:40:59 07:19 8.20
178 5149 DEVOS Erine CF 14 00:41:02 07:20 8.19
179 5209 BORRET Anne-Lisse F 65 00:43:44 07:49 7.68
180 5228 RENARD Lucas CH 33 00:44:58 08:02 7.47
181 5162 VELEN Severine F 66 00:45:46 08:10 7.34
182 5229 LAMINE Catherine F 67 00:45:46 08:10 7.34